| time (UTC) | temp F | wind direction | speed MPH | gust MPH | rain 1hr in | rain 24hr in | rain mn in | humidity % | barometer mb |
| 20260904205547 | 68 | 300 | 2.0 | 10.0 | 0.00 | 0.02 | 0.02 | 68 | 1013.4 |
| 20260904205047 | 68 | 0 | 1.0 | 5.0 | 0.00 | 0.02 | 0.02 | 64 | 1013.3 |
| 20260904204601 | 68 | 246 | 1.0 | 8.0 | 0.00 | 0.02 | 0.02 | 63 | 1013.3 |
| 20260904204047 | 67 | 252 | 3.0 | 8.0 | 0.00 | 0.02 | 0.02 | 63 | 1013.3 |
| 20260904203547 | 67 | 217 | 1.0 | 7.0 | 0.00 | 0.02 | 0.02 | 67 | 1013.3 |
| 20260904203101 | 66 | 0 | 0.0 | 7.0 | 0.00 | 0.02 | 0.02 | 68 | 1013.3 |
| 20260904202546 | 67 | 0 | 2.0 | 7.0 | 0.00 | 0.02 | 0.02 | 67 | 1013.3 |
| 20260904202044 | 65 | 296 | 2.0 | 7.0 | 0.00 | 0.02 | 0.02 | 68 | 1013.3 |
| 20260904201558 | 65 | 281 | 1.0 | 5.0 | 0.00 | 0.02 | 0.02 | 68 | 1013.3 |
| 20260904201046 | 65 | 245 | 1.0 | 7.0 | 0.00 | 0.02 | 0.02 | 65 | 1013.2 |
| 20260904200546 | 67 | 0 | 1.0 | 7.0 | 0.00 | 0.02 | 0.02 | 66 | 1013.2 |
| 20260904200058 | 65 | 5 | 1.0 | 7.0 | 0.00 | 0.02 | 0.02 | 70 | 1013.2 |
| 20260904195546 | 65 | 0 | 0.0 | 7.0 | 0.00 | 0.02 | 0.02 | 70 | 1013.3 |
| 20260904195043 | 65 | 11 | 1.0 | 7.0 | 0.00 | 0.02 | 0.02 | 71 | 1013.3 |
| 20260904194612 | 66 | 268 | 0.0 | 6.0 | 0.00 | 0.02 | 0.02 | 71 | 1013.3 |
| 20260904194047 | 64 | 0 | 0.0 | 7.0 | 0.00 | 0.02 | 0.02 | 71 | 1013.4 |
| 20260904193547 | 64 | 249 | 2.0 | 7.0 | 0.00 | 0.02 | 0.02 | 70 | 1013.5 |
| 20260904193114 | 64 | 0 | 0.0 | 4.0 | 0.00 | 0.02 | 0.02 | 73 | 1013.4 |
| 20260904192546 | 63 | 294 | 1.0 | 4.0 | 0.00 | 0.02 | 0.02 | 73 | 1013.5 |
| 20260904192044 | 64 | 294 | 1.0 | 5.0 | 0.00 | 0.02 | 0.02 | 73 | 1013.5 |
| 20260904191602 | 63 | 299 | 1.0 | 6.0 | 0.00 | 0.02 | 0.02 | 76 | 1013.4 |
| 20260904191046 | 62 | 212 | 2.0 | 6.0 | 0.00 | 0.02 | 0.02 | 79 | 1013.4 |
| 20260904190546 | 61 | 300 | 2.0 | 5.0 | 0.00 | 0.02 | 0.02 | 79 | 1013.4 |
| 20260904185547 | 61 | 315 | 1.0 | 5.0 | 0.00 | 0.02 | 0.02 | 80 | 1013.4 |
| 20260904185050 | 62 | 314 | 1.0 | 8.0 | 0.00 | 0.02 | 0.02 | 80 | 1013.4 |
| 20260904184621 | 61 | 0 | 1.0 | 8.0 | 0.00 | 0.02 | 0.02 | 83 | 1013.5 |
| 20260904184048 | 61 | 303 | 2.0 | 8.0 | 0.00 | 0.02 | 0.02 | 81 | 1013.5 |
| 20260904183548 | 61 | 0 | 1.0 | 6.0 | 0.00 | 0.02 | 0.02 | 82 | 1013.5 |
| 20260904183106 | 60 | 301 | 1.0 | 6.0 | 0.00 | 0.02 | 0.02 | 84 | 1013.5 |
| 20260904182546 | 60 | 325 | 0.0 | 4.0 | 0.00 | 0.02 | 0.02 | 84 | 1013.6 |
| 20260904182047 | 60 | 0 | 0.0 | 3.0 | 0.00 | 0.02 | 0.02 | 82 | 1013.6 |
| 20260904181611 | 60 | 330 | 1.0 | 3.0 | 0.00 | 0.02 | 0.02 | 84 | 1013.6 |
| 20260904181046 | 60 | 0 | 0.0 | 2.0 | 0.00 | 0.02 | 0.02 | 87 | 1013.5 |
| 20260904180550 | 59 | 330 | 0.0 | 2.0 | 0.00 | 0.02 | 0.02 | 89 | 1013.5 |
| 20260904180119 | 58 | 0 | 0.0 | 2.0 | 0.00 | 0.02 | 0.02 | 90 | 1013.5 |
| 20260904175546 | 57 | 0 | 0.0 | 2.0 | 0.00 | 0.02 | 0.02 | 90 | 1013.5 |
| 20260904175047 | 57 | 0 | 0.0 | 2.0 | 0.00 | 0.02 | 0.02 | 89 | 1013.5 |
| 20260904174618 | 57 | 0 | 0.0 | 3.0 | 0.00 | 0.02 | 0.02 | 92 | 1013.5 |
| 20260904174048 | 56 | 0 | 0.0 | 3.0 | 0.00 | 0.02 | 0.02 | 92 | 1013.5 |
| 20260904173547 | 57 | 331 | 0.0 | 3.0 | 0.00 | 0.02 | 0.02 | 92 | 1013.6 |
| 20260904173107 | 57 | 330 | 0.0 | 4.0 | 0.00 | 0.02 | 0.02 | 93 | 1013.5 |
| 20260904172546 | 56 | 0 | 0.0 | 4.0 | 0.00 | 0.02 | 0.02 | 93 | 1013.5 |
| 20260904172047 | 57 | 0 | 1.0 | 4.0 | 0.00 | 0.02 | 0.02 | 93 | 1013.4 |
| 20260904171607 | 56 | 0 | 0.0 | 3.0 | 0.00 | 0.02 | 0.02 | 93 | 1013.4 |
| 20260904171044 | 56 | 0 | 0.0 | 3.0 | 0.00 | 0.02 | 0.02 | 95 | 1013.5 |
| 20260904170546 | 55 | 158 | 0.0 | 3.0 | 0.00 | 0.02 | 0.02 | 96 | 1013.5 |
| 20260904170100 | 55 | 0 | 1.0 | 3.0 | 0.00 | 0.02 | 0.02 | 96 | 1013.5 |
| 20260904165545 | 55 | 0 | 0.0 | 3.0 | 0.00 | 0.02 | 0.02 | 96 | 1013.4 |
| 20260904165047 | 55 | 0 | 0.0 | 3.0 | 0.00 | 0.02 | 0.02 | 96 | 1013.4 |
| 20260904164605 | 55 | 157 | 0.0 | 2.0 | 0.00 | 0.02 | 0.02 | 96 | 1013.4 |
| 20260904164047 | 55 | 0 | 0.0 | 1.0 | 0.00 | 0.02 | 0.02 | 97 | 1013.4 |
| 20260904163548 | 55 | 0 | 0.0 | 0.0 | 0.00 | 0.02 | 0.02 | 97 | 1013.3 |
| 20260904163109 | 54 | 0 | 0.0 | 0.0 | 0.00 | 0.02 | 0.02 | 97 | 1013.3 |
| 20260904162548 | 54 | 0 | 0.0 | 0.0 | 0.00 | 0.02 | 0.02 | 97 | 1013.3 |
| 20260904162047 | 54 | 0 | 0.0 | 0.0 | 0.00 | 0.02 | 0.02 | 97 | 1013.3 |
| 20260904161600 | 54 | 0 | 0.0 | 0.0 | 0.00 | 0.02 | 0.02 | 97 | 1013.2 |
| 20260904161050 | 54 | 0 | 0.0 | 0.0 | 0.00 | 0.02 | 0.02 | 97 | 1013.2 |
| 20260904160547 | 54 | 0 | 0.0 | 0.0 | 0.00 | 0.02 | 0.02 | 97 | 1013.2 |
| 20260904160105 | 54 | 0 | 0.0 | 0.0 | 0.00 | 0.02 | 0.02 | 97 | 1013.3 |
| 20260904155546 | 54 | 0 | 0.0 | 0.0 | 0.00 | 0.02 | 0.02 | 97 | 1013.2 |
| 20260904155050 | 53 | 0 | 0.0 | 0.0 | 0.00 | 0.02 | 0.02 | 97 | 1013.3 |
| 20260904154557 | 53 | 0 | 0.0 | 0.0 | 0.00 | 0.02 | 0.02 | 97 | 1013.3 |
| 20260904154046 | 53 | 0 | 0.0 | 0.0 | 0.00 | 0.02 | 0.02 | 97 | 1013.3 |
| 20260904153547 | 53 | 0 | 0.0 | 0.0 | 0.00 | 0.02 | 0.02 | 97 | 1013.2 |
| 20260904153117 | 53 | 0 | 0.0 | 0.0 | 0.00 | 0.02 | 0.02 | 97 | 1013.2 |
| 20260904152545 | 53 | 0 | 0.0 | 0.0 | 0.00 | 0.02 | 0.02 | 97 | 1013.1 |
| 20260904152048 | 53 | 0 | 0.0 | 0.0 | 0.00 | 0.02 | 0.02 | 97 | 1013.2 |
| 20260904151602 | 53 | 0 | 0.0 | 0.0 | 0.00 | 0.02 | 0.02 | 97 | 1013.1 |
| 20260904151047 | 53 | 0 | 0.0 | 0.0 | 0.00 | 0.02 | 0.02 | 97 | 1013.1 |
| 20260904150547 | 53 | 0 | 0.0 | 0.0 | 0.00 | 0.02 | 0.02 | 97 | 1013.0 |
| 20260904145547 | 52 | 0 | 0.0 | 0.0 | 0.00 | 0.02 | 0.02 | 97 | 1012.9 |
| 20260904145047 | 52 | 0 | 0.0 | 0.0 | 0.00 | 0.02 | 0.02 | 96 | 1012.9 |
| 20260904144603 | 52 | 0 | 0.0 | 0.0 | 0.00 | 0.02 | 0.02 | 96 | 1012.8 |
| 20260904144046 | 52 | 0 | 0.0 | 0.0 | 0.00 | 0.02 | 0.02 | 96 | 1012.7 |
| 20260904143544 | 52 | 0 | 0.0 | 0.0 | 0.00 | 0.02 | 0.02 | 96 | 1012.7 |
| 20260904143109 | 52 | 0 | 0.0 | 0.0 | 0.00 | 0.02 | 0.02 | 96 | 1012.5 |
| 20260904142550 | 52 | 0 | 0.0 | 0.0 | 0.00 | 0.02 | 0.02 | 96 | 1012.5 |
| 20260904142046 | 52 | 0 | 0.0 | 0.0 | 0.00 | 0.02 | 0.02 | 96 | 1012.4 |
| 20260904141602 | 52 | 0 | 0.0 | 0.0 | 0.00 | 0.02 | 0.02 | 96 | 1012.4 |
| 20260904141046 | 52 | 0 | 0.0 | 0.0 | 0.00 | 0.02 | 0.02 | 96 | 1012.3 |
| 20260904140546 | 52 | 0 | 0.0 | 0.0 | 0.00 | 0.02 | 0.02 | 96 | 1012.4 |
| 20260904140059 | 52 | 0 | 0.0 | 0.0 | 0.00 | 0.02 | 0.02 | 96 | 1012.4 |
| 20260904135546 | 52 | 0 | 0.0 | 0.0 | 0.00 | 0.02 | 0.02 | 96 | 1012.3 |
| 20260904135047 | 52 | 0 | 0.0 | 0.0 | 0.00 | 0.02 | 0.02 | 96 | 1012.1 |
| 20260904134601 | 52 | 0 | 0.0 | 0.0 | 0.00 | 0.02 | 0.02 | 96 | 1012.0 |
| 20260904134050 | 52 | 0 | 0.0 | 0.0 | 0.00 | 0.02 | 0.02 | 96 | 1011.9 |
| 20260904133547 | 52 | 0 | 0.0 | 0.0 | 0.00 | 0.02 | 0.02 | 96 | 1011.9 |
| 20260904133112 | 52 | 0 | 0.0 | 0.0 | 0.00 | 0.02 | 0.02 | 96 | 1011.8 |
| 20260904132547 | 52 | 0 | 0.0 | 0.0 | 0.00 | 0.02 | 0.02 | 96 | 1011.7 |
| 20260904132046 | 52 | 0 | 0.0 | 0.0 | 0.00 | 0.02 | 0.02 | 96 | 1011.6 |
| 20260904131558 | 52 | 0 | 0.0 | 0.0 | 0.00 | 0.02 | 0.02 | 96 | 1011.7 |
| 20260904131046 | 52 | 0 | 0.0 | 0.0 | 0.00 | 0.02 | 0.02 | 96 | 1011.7 |
| 20260904130546 | 52 | 0 | 0.0 | 0.0 | 0.00 | 0.02 | 0.02 | 96 | 1011.5 |
| 20260904130058 | 52 | 0 | 0.0 | 0.0 | 0.00 | 0.02 | 0.02 | 96 | 1011.5 |
| 20260904125550 | 52 | 0 | 0.0 | 0.0 | 0.00 | 0.02 | 0.02 | 96 | 1011.5 |
| 20260904125046 | 52 | 0 | 0.0 | 1.0 | 0.00 | 0.02 | 0.02 | 96 | 1011.5 |
| 20260904124607 | 52 | 0 | 0.0 | 1.0 | 0.00 | 0.02 | 0.02 | 96 | 1011.6 |
| 20260904124045 | 52 | 0 | 0.0 | 0.0 | 0.00 | 0.02 | 0.02 | 96 | 1011.5 |
| 20260904123548 | 52 | 0 | 0.0 | 0.0 | 0.00 | 0.02 | 0.02 | 96 | 1011.5 |
| 20260904123114 | 52 | 0 | 0.0 | 0.0 | 0.00 | 0.02 | 0.02 | 95 | 1011.4 |
| 20260904122549 | 52 | 0 | 0.0 | 0.0 | 0.00 | 0.02 | 0.02 | 95 | 1011.5 |
| 20260904122051 | 52 | 0 | 0.0 | 0.0 | 0.00 | 0.02 | 0.02 | 95 | 1011.4 |
| 20260904121603 | 52 | 0 | 0.0 | 0.0 | 0.00 | 0.02 | 0.02 | 95 | 1011.5 |
| 20260904121052 | 52 | 0 | 0.0 | 0.0 | 0.00 | 0.02 | 0.02 | 95 | 1011.4 |
| 20260904120546 | 52 | 0 | 0.0 | 0.0 | 0.00 | 0.02 | 0.02 | 95 | 1011.3 |
| 20260904115546 | 52 | 0 | 0.0 | 0.0 | 0.00 | 0.02 | 0.02 | 95 | 1011.3 |
| 20260904115047 | 52 | 0 | 0.0 | 0.0 | 0.00 | 0.02 | 0.02 | 95 | 1011.2 |
| 20260904114602 | 52 | 0 | 0.0 | 0.0 | 0.00 | 0.02 | 0.02 | 95 | 1011.1 |
| 20260904114047 | 52 | 0 | 0.0 | 0.0 | 0.00 | 0.02 | 0.02 | 95 | 1011.1 |
| 20260904113545 | 53 | 0 | 0.0 | 0.0 | 0.00 | 0.02 | 0.02 | 95 | 1011.0 |
| 20260904113102 | 53 | 0 | 0.0 | 0.0 | 0.00 | 0.02 | 0.02 | 95 | 1011.0 |
| 20260904112547 | 53 | 0 | 0.0 | 0.0 | 0.00 | 0.02 | 0.02 | 95 | 1010.9 |
| 20260904112045 | 53 | 0 | 0.0 | 0.0 | 0.01 | 0.02 | 0.02 | 95 | 1010.9 |
| 20260904111613 | 53 | 0 | 0.0 | 0.0 | 0.02 | 0.02 | 0.02 | 95 | 1010.9 |
| 20260904111044 | 53 | 0 | 0.0 | 0.0 | 0.02 | 0.02 | 0.02 | 95 | 1010.8 |
| 20260904110546 | 53 | 0 | 0.0 | 0.0 | 0.02 | 0.02 | 0.02 | 95 | 1010.8 |
| 20260904110109 | 53 | 0 | 0.0 | 0.0 | 0.02 | 0.02 | 0.02 | 95 | 1010.8 |
| 20260904105545 | 53 | 0 | 0.0 | 0.0 | 0.02 | 0.02 | 0.02 | 95 | 1010.8 |
| 20260904105045 | 52 | 0 | 0.0 | 0.0 | 0.02 | 0.02 | 0.02 | 94 | 1010.8 |
| 20260904104604 | 53 | 0 | 0.0 | 0.0 | 0.02 | 0.02 | 0.02 | 94 | 1010.8 |
| 20260904104046 | 53 | 0 | 0.0 | 0.0 | 0.02 | 0.02 | 0.02 | 94 | 1010.8 |
| 20260904103549 | 53 | 0 | 0.0 | 0.0 | 0.02 | 0.02 | 0.02 | 94 | 1010.8 |
| 20260904103100 | 53 | 0 | 0.0 | 0.0 | 0.02 | 0.02 | 0.02 | 94 | 1010.8 |
| 20260904102547 | 53 | 0 | 0.0 | 0.0 | 0.01 | 0.01 | 0.01 | 94 | 1010.6 |
| 20260904102048 | 53 | 0 | 0.0 | 0.0 | 0.01 | 0.01 | 0.01 | 94 | 1010.9 |
| 20260904101609 | 53 | 0 | 0.0 | 0.0 | 0.00 | 0.00 | 0.00 | 94 | 1010.7 |
| 20260904101046 | 53 | 0 | 0.0 | 1.0 | 0.00 | 0.00 | 0.00 | 94 | 1010.5 |
| 20260904100551 | 53 | 0 | 0.0 | 1.0 | 0.00 | 0.00 | 0.00 | 94 | 1010.3 |
| 20260904100104 | 53 | 0 | 0.0 | 0.0 | 0.00 | 0.00 | 0.00 | 94 | 1010.3 |
| 20260904095547 | 53 | 0 | 0.0 | 0.0 | 0.00 | 0.00 | 0.00 | 94 | 1010.4 |
| 20260904095047 | 53 | 0 | 0.0 | 0.0 | 0.00 | 0.00 | 0.00 | 94 | 1010.4 |
| 20260904094601 | 53 | 0 | 0.0 | 0.0 | 0.00 | 0.00 | 0.00 | 94 | 1010.4 |
| 20260904094043 | 53 | 0 | 0.0 | 0.0 | 0.00 | 0.00 | 0.00 | 94 | 1010.5 |
| 20260904093547 | 53 | 0 | 0.0 | 0.0 | 0.00 | 0.00 | 0.00 | 93 | 1010.5 |
| 20260904093114 | 53 | 0 | 0.0 | 0.0 | 0.00 | 0.00 | 0.00 | 94 | 1010.6 |
| 20260904092550 | 53 | 0 | 0.0 | 0.0 | 0.00 | 0.00 | 0.00 | 93 | 1010.6 |
| 20260904092044 | 53 | 0 | 0.0 | 0.0 | 0.00 | 0.00 | 0.00 | 93 | 1010.5 |
| 20260904091556 | 53 | 0 | 0.0 | 0.0 | 0.00 | 0.00 | 0.00 | 93 | 1010.6 |
| 20260904091044 | 52 | 0 | 0.0 | 0.0 | 0.00 | 0.00 | 0.00 | 93 | 1010.6 |
| 20260904090546 | 52 | 0 | 0.0 | 0.0 | 0.00 | 0.00 | 0.00 | 93 | 1010.6 |
| 20260904090056 | 53 | 0 | 0.0 | 0.0 | 0.00 | 0.00 | 0.00 | 93 | 1010.7 |
| 20260904085549 | 53 | 0 | 0.0 | 0.0 | 0.00 | 0.00 | 0.00 | 93 | 1010.7 |
| 20260904085045 | 53 | 0 | 0.0 | 0.0 | 0.00 | 0.00 | 0.00 | 93 | 1010.8 |
| 20260904084601 | 53 | 0 | 0.0 | 0.0 | 0.00 | 0.00 | 0.00 | 93 | 1010.8 |
| 20260904084048 | 53 | 0 | 0.0 | 0.0 | 0.00 | 0.00 | 0.00 | 93 | 1010.8 |
| 20260904083546 | 53 | 0 | 0.0 | 0.0 | 0.00 | 0.00 | 0.00 | 93 | 1010.8 |
| 20260904083057 | 53 | 0 | 0.0 | 0.0 | 0.00 | 0.00 | 0.00 | 93 | 1010.8 |
| 20260904082546 | 53 | 0 | 0.0 | 0.0 | 0.00 | 0.00 | 0.00 | 93 | 1010.9 |
| 20260904082045 | 53 | 0 | 0.0 | 0.0 | 0.00 | 0.00 | 0.00 | 93 | 1010.8 |
| 20260904081556 | 53 | 0 | 0.0 | 0.0 | 0.00 | 0.00 | 0.00 | 93 | 1010.8 |
| 20260904081052 | 53 | 0 | 0.0 | 0.0 | 0.00 | 0.00 | 0.00 | 93 | 1010.8 |
| 20260904080546 | 53 | 0 | 0.0 | 0.0 | 0.00 | 0.00 | 0.00 | 93 | 1010.9 |
| 20260904080104 | 53 | 0 | 0.0 | 0.0 | 0.00 | 0.00 | 0.00 | 93 | 1010.9 |
| 20260904075547 | 53 | 0 | 0.0 | 0.0 | 0.00 | 0.00 | 0.00 | 93 | 1010.8 |
| 20260904075048 | 53 | 0 | 0.0 | 0.0 | 0.00 | 0.00 | 0.00 | 93 | 1010.9 |
| 20260904074558 | 53 | 0 | 0.0 | 0.0 | 0.00 | 0.00 | 0.00 | 93 | 1011.0 |
| 20260904074046 | 53 | 0 | 0.0 | 0.0 | 0.00 | 0.00 | 0.00 | 93 | 1011.0 |
| 20260904073546 | 53 | 0 | 0.0 | 2.0 | 0.00 | 0.00 | 0.00 | 93 | 1011.0 |
| 20260904073103 | 53 | 0 | 0.0 | 2.0 | 0.00 | 0.00 | 0.00 | 93 | 1011.0 |
| 20260904072546 | 53 | 0 | 0.0 | 2.0 | 0.00 | 0.00 | 0.00 | 93 | 1011.0 |
| 20260904072050 | 53 | 0 | 0.0 | 0.0 | 0.00 | 0.00 | 0.00 | 93 | 1011.0 |
| 20260904071605 | 53 | 0 | 0.0 | 0.0 | 0.00 | 0.00 | 0.00 | 93 | 1011.0 |
| 20260904071046 | 53 | 0 | 0.0 | 0.0 | 0.00 | 0.00 | 0.00 | 92 | 1010.9 |
| 20260904070550 | 53 | 0 | 0.0 | 0.0 | 0.00 | 0.00 | 0.00 | 92 | 1010.9 |
| 20260904070104 | 53 | 0 | 0.0 | 0.0 | 0.00 | 0.00 | 0.00 | 92 | 1011.0 |
| 20260904065546 | 53 | 0 | 0.0 | 0.0 | 0.00 | 0.00 | 0.00 | 92 | 1010.9 |
| 20260904065049 | 53 | 0 | 0.0 | 0.0 | 0.00 | 0.00 | 0.00 | 92 | 1010.9 |
| 20260904064600 | 53 | 0 | 0.0 | 0.0 | 0.00 | 0.00 | 0.00 | 92 | 1010.9 |
| 20260904064046 | 53 | 0 | 0.0 | 0.0 | 0.00 | 0.00 | 0.00 | 92 | 1010.8 |
| 20260904063546 | 53 | 0 | 0.0 | 0.0 | 0.00 | 0.00 | 0.00 | 91 | 1010.8 |
| 20260904063056 | 53 | 0 | 0.0 | 0.0 | 0.00 | 0.00 | 0.00 | 91 | 1010.9 |
| 20260904062546 | 53 | 0 | 0.0 | 0.0 | 0.00 | 0.00 | 0.00 | 91 | 1010.8 |
| 20260904062046 | 53 | 0 | 0.0 | 0.0 | 0.00 | 0.00 | 0.00 | 91 | 1010.8 |
| 20260904061600 | 53 | 0 | 0.0 | 0.0 | 0.00 | 0.00 | 0.00 | 91 | 1010.7 |
| 20260904061047 | 53 | 0 | 0.0 | 0.0 | 0.00 | 0.00 | 0.00 | 91 | 1010.7 |
| 20260904060547 | 53 | 0 | 0.0 | 2.0 | 0.00 | 0.00 | 0.00 | 91 | 1010.7 |
| 20260904055547 | 53 | 0 | 0.0 | 6.0 | 0.00 | 0.00 | 0.00 | 91 | 1010.7 |
| 20260904055048 | 53 | 0 | 0.0 | 1.0 | 0.00 | 0.00 | 0.00 | 91 | 1010.7 |
| 20260904054600 | 54 | 0 | 0.0 | 1.0 | 0.00 | 0.00 | 0.00 | 91 | 1010.6 |
| 20260904054046 | 54 | 0 | 0.0 | 1.0 | 0.00 | 0.00 | 0.00 | 90 | 1010.7 |
| 20260904053546 | 54 | 0 | 0.0 | 1.0 | 0.00 | 0.00 | 0.00 | 90 | 1010.6 |
| 20260904053056 | 54 | 0 | 0.0 | 2.0 | 0.00 | 0.00 | 0.00 | 90 | 1010.6 |
| 20260904052547 | 54 | 0 | 0.0 | 2.0 | 0.00 | 0.00 | 0.00 | 90 | 1010.5 |
| 20260904052047 | 55 | 0 | 0.0 | 2.0 | 0.00 | 0.00 | 0.00 | 89 | 1010.5 |
| 20260904051604 | 55 | 0 | 0.0 | 0.0 | 0.00 | 0.00 | 0.00 | 89 | 1010.6 |
| 20260904051047 | 55 | 0 | 0.0 | 0.0 | 0.00 | 0.00 | 0.00 | 89 | 1010.6 |
| 20260904050546 | 55 | 0 | 0.0 | 0.0 | 0.00 | 0.00 | 0.00 | 89 | 1010.6 |
| 20260904050058 | 55 | 0 | 0.0 | 0.0 | 0.00 | 0.00 | 0.00 | 89 | 1010.6 |
| 20260904045547 | 55 | 0 | 0.0 | 0.0 | 0.00 | 0.00 | 0.00 | 89 | 1010.7 |
| 20260904045046 | 55 | 0 | 0.0 | 0.0 | 0.00 | 0.00 | 0.00 | 89 | 1010.6 |
| 20260904044609 | 55 | 0 | 0.0 | 0.0 | 0.00 | 0.00 | 0.00 | 89 | 1010.6 |
| 20260904044048 | 55 | 0 | 0.0 | 0.0 | 0.00 | 0.00 | 0.00 | 89 | 1010.6 |
| 20260904043547 | 55 | 0 | 0.0 | 0.0 | 0.00 | 0.00 | 0.00 | 88 | 1010.6 |
| 20260904043058 | 55 | 0 | 0.0 | 0.0 | 0.00 | 0.00 | 0.00 | 88 | 1010.6 |
| 20260904042547 | 55 | 0 | 0.0 | 0.0 | 0.00 | 0.00 | 0.00 | 88 | 1010.7 |
| 20260904042046 | 55 | 0 | 0.0 | 0.0 | 0.00 | 0.00 | 0.00 | 88 | 1010.7 |
| 20260904041601 | 55 | 0 | 0.0 | 0.0 | 0.00 | 0.00 | 0.00 | 88 | 1010.8 |
| 20260904041047 | 55 | 0 | 0.0 | 0.0 | 0.00 | 0.00 | 0.00 | 88 | 1010.6 |
| 20260904040547 | 55 | 0 | 0.0 | 0.0 | 0.00 | 0.00 | 0.00 | 87 | 1010.6 |
| 20260904035546 | 55 | 0 | 0.0 | 0.0 | 0.00 | 0.00 | 0.00 | 86 | 1010.5 |
| 20260904035046 | 55 | 0 | 0.0 | 0.0 | 0.00 | 0.00 | 0.00 | 86 | 1010.5 |
| 20260904034601 | 56 | 0 | 0.0 | 0.0 | 0.00 | 0.00 | 0.00 | 86 | 1010.4 |
| 20260904034047 | 56 | 0 | 0.0 | 0.0 | 0.00 | 0.00 | 0.00 | 85 | 1010.4 |
| 20260904033549 | 56 | 0 | 0.0 | 0.0 | 0.00 | 0.00 | 0.00 | 85 | 1010.5 |
| 20260904033100 | 56 | 0 | 0.0 | 0.0 | 0.00 | 0.00 | 0.00 | 84 | 1010.4 |
| 20260904032546 | 57 | 0 | 0.0 | 0.0 | 0.00 | 0.00 | 0.00 | 83 | 1010.3 |
| 20260904032048 | 57 | 0 | 0.0 | 0.0 | 0.00 | 0.00 | 0.00 | 83 | 1010.2 |
| 20260904031603 | 57 | 0 | 0.0 | 0.0 | 0.00 | 0.00 | 0.00 | 82 | 1010.1 |
| 20260904031044 | 58 | 0 | 0.0 | 0.0 | 0.00 | 0.00 | 0.00 | 82 | 1010.1 |
| 20260904030547 | 58 | 0 | 0.0 | 0.0 | 0.00 | 0.00 | 0.00 | 82 | 1010.0 |
| 20260904030111 | 58 | 0 | 0.0 | 0.0 | 0.00 | 0.00 | 0.00 | 79 | 1009.9 |
| 20260904025547 | 59 | 0 | 0.0 | 0.0 | 0.00 | 0.00 | 0.00 | 77 | 1010.0 |
| 20260904025047 | 60 | 0 | 0.0 | 0.0 | 0.00 | 0.00 | 0.00 | 76 | 1009.9 |
| 20260904024608 | 61 | 0 | 0.0 | 0.0 | 0.00 | 0.00 | 0.00 | 73 | 1009.8 |
| 20260904024047 | 62 | 0 | 0.0 | 0.0 | 0.00 | 0.00 | 0.00 | 72 | 1009.8 |
| 20260904023546 | 63 | 0 | 0.0 | 0.0 | 0.00 | 0.00 | 0.00 | 71 | 1009.7 |
| 20260904023104 | 63 | 0 | 0.0 | 0.0 | 0.00 | 0.00 | 0.00 | 70 | 1009.6 |
| 20260904022546 | 63 | 0 | 0.0 | 0.0 | 0.00 | 0.00 | 0.00 | 67 | 1009.6 |
| 20260904022047 | 63 | 0 | 0.0 | 1.0 | 0.00 | 0.00 | 0.00 | 69 | 1009.6 |
| 20260904021602 | 64 | 0 | 0.0 | 1.0 | 0.00 | 0.00 | 0.00 | 68 | 1009.5 |
| 20260904021046 | 64 | 0 | 0.0 | 1.0 | 0.00 | 0.00 | 0.00 | 66 | 1009.6 |
| 20260904020546 | 64 | 0 | 0.0 | 0.0 | 0.00 | 0.00 | 0.00 | 66 | 1009.5 |
| 20260904020104 | 64 | 0 | 0.0 | 1.0 | 0.00 | 0.00 | 0.00 | 65 | 1009.5 |
| 20260904015545 | 65 | 0 | 0.0 | 1.0 | 0.00 | 0.00 | 0.00 | 65 | 1009.6 |
| 20260904015047 | 65 | 0 | 0.0 | 2.0 | 0.00 | 0.00 | 0.00 | 65 | 1009.5 |
| 20260904014602 | 65 | 0 | 0.0 | 2.0 | 0.00 | 0.00 | 0.00 | 64 | 1009.5 |
| 20260904014047 | 65 | 0 | 0.0 | 2.0 | 0.00 | 0.00 | 0.00 | 63 | 1009.6 |
| 20260904013546 | 65 | 0 | 0.0 | 2.0 | 0.00 | 0.00 | 0.00 | 63 | 1009.5 |
| 20260904013057 | 66 | 0 | 0.0 | 2.0 | 0.00 | 0.00 | 0.00 | 62 | 1009.6 |
| 20260904012545 | 66 | 0 | 0.0 | 5.0 | 0.00 | 0.00 | 0.00 | 61 | 1009.5 |
| 20260904012046 | 67 | 0 | 0.0 | 5.0 | 0.00 | 0.00 | 0.00 | 62 | 1009.5 |
| 20260904011613 | 67 | 0 | 0.0 | 6.0 | 0.00 | 0.00 | 0.00 | 59 | 1009.5 |
| 20260904011046 | 67 | 170 | 2.0 | 6.0 | 0.00 | 0.00 | 0.00 | 58 | 1009.5 |
| 20260904010552 | 67 | 0 | 0.0 | 6.0 | 0.00 | 0.00 | 0.00 | 59 | 1009.4 |
| 20260904010113 | 68 | 176 | 1.0 | 6.0 | 0.00 | 0.00 | 0.00 | 59 | 1009.5 |
| 20260904005546 | 68 | 0 | 1.0 | 5.0 | 0.00 | 0.02 | 0.00 | 59 | 1009.4 |
| 20260904005046 | 68 | 0 | 0.0 | 3.0 | 0.00 | 0.02 | 0.00 | 58 | 1009.4 |
| 20260904004605 | 68 | 0 | 0.0 | 4.0 | 0.00 | 0.02 | 0.00 | 57 | 1009.4 |
| 20260904004047 | 68 | 0 | 0.0 | 5.0 | 0.00 | 0.02 | 0.00 | 56 | 1009.5 |
| 20260904003546 | 69 | 165 | 0.0 | 6.0 | 0.00 | 0.02 | 0.00 | 56 | 1009.5 |
| 20260904003059 | 68 | 0 | 2.0 | 6.0 | 0.00 | 0.02 | 0.00 | 56 | 1009.5 |
| 20260904002550 | 68 | 187 | 1.0 | 6.0 | 0.00 | 0.02 | 0.00 | 56 | 1009.5 |
| 20260904002048 | 67 | 202 | 3.0 | 5.0 | 0.00 | 0.02 | 0.00 | 58 | 1009.6 |
| 20260904001600 | 67 | 167 | 1.0 | 5.0 | 0.00 | 0.02 | 0.00 | 59 | 1009.6 |
| 20260904001046 | 67 | 196 | 1.0 | 6.0 | 0.00 | 0.02 | 0.00 | 59 | 1009.6 |
| 20260904000546 | 66 | 211 | 3.0 | 6.0 | 0.00 | 0.02 | 0.00 | 59 | 1009.7 |
| 20260904000103 | 67 | 177 | 0.0 | 3.0 | 0.00 | 0.02 | 0.00 | 59 | 1009.6 |
| 20260903235547 | 66 | 0 | 0.0 | 1.0 | 0.00 | 0.10 | 0.00 | 61 | 1009.6 |
| 20260903235046 | 66 | 0 | 0.0 | 4.0 | 0.00 | 0.10 | 0.00 | 62 | 1009.7 |
| 20260903234605 | 66 | 0 | 0.0 | 4.0 | 0.00 | 0.10 | 0.00 | 62 | 1009.8 |
| 20260903234047 | 66 | 0 | 0.0 | 2.0 | 0.00 | 0.10 | 0.00 | 62 | 1009.8 |
| 20260903233547 | 65 | 0 | 0.0 | 3.0 | 0.00 | 0.10 | 0.00 | 62 | 1009.8 |
| 20260903233104 | 65 | 0 | 0.0 | 3.0 | 0.00 | 0.10 | 0.00 | 65 | 1009.7 |
| 20260903232547 | 65 | 176 | 0.0 | 2.0 | 0.00 | 0.10 | 0.00 | 64 | 1009.6 |
| 20260903232046 | 65 | 0 | 0.0 | 3.0 | 0.00 | 0.10 | 0.00 | 64 | 1009.8 |
| 20260903231603 | 65 | 177 | 0.0 | 3.0 | 0.00 | 0.10 | 0.00 | 65 | 1009.7 |
| 20260903231046 | 65 | 0 | 0.0 | 2.0 | 0.00 | 0.10 | 0.00 | 66 | 1009.7 |
| 20260903230547 | 65 | 0 | 0.0 | 3.0 | 0.00 | 0.10 | 0.00 | 65 | 1009.8 |
| 20260903230100 | 64 | 0 | 0.0 | 3.0 | 0.00 | 0.10 | 0.00 | 67 | 1009.8 |
| 20260903225547 | 64 | 0 | 0.0 | 3.0 | 0.00 | 0.10 | 0.00 | 66 | 1009.8 |
| 20260903225046 | 64 | 178 | 0.0 | 2.0 | 0.00 | 0.10 | 0.00 | 67 | 1009.9 |
| 20260903224602 | 64 | 0 | 0.0 | 2.0 | 0.00 | 0.10 | 0.00 | 67 | 1009.8 |
| 20260903224046 | 64 | 0 | 0.0 | 3.0 | 0.00 | 0.10 | 0.00 | 67 | 1009.8 |
| 20260903223547 | 64 | 0 | 0.0 | 3.0 | 0.00 | 0.10 | 0.00 | 69 | 1009.9 |
| 20260903223101 | 64 | 0 | 0.0 | 3.0 | 0.00 | 0.10 | 0.00 | 65 | 1009.8 |
| 20260903222547 | 64 | 0 | 0.0 | 4.0 | 0.00 | 0.10 | 0.00 | 67 | 1009.8 |
| 20260903222051 | 64 | 0 | 0.0 | 4.0 | 0.00 | 0.10 | 0.00 | 68 | 1009.8 |
| 20260903221603 | 64 | 360 | 0.0 | 4.0 | 0.00 | 0.10 | 0.00 | 66 | 1009.8 |
| 20260903221046 | 64 | 0 | 0.0 | 4.0 | 0.00 | 0.10 | 0.00 | 67 | 1009.8 |
| 20260903220546 | 64 | 0 | 0.0 | 4.0 | 0.00 | 0.10 | 0.00 | 67 | 1009.8 |
| 20260903220117 | 64 | 0 | 0.0 | 3.0 | 0.00 | 0.10 | 0.00 | 67 | 1009.8 |
| 20260903215547 | 64 | 0 | 0.0 | 4.0 | 0.00 | 0.10 | 0.00 | 66 | 1009.8 |
| 20260903215046 | 64 | 24 | 0.0 | 4.0 | 0.00 | 0.10 | 0.00 | 68 | 1009.8 |
| 20260903214605 | 64 | 0 | 1.0 | 4.0 | 0.00 | 0.10 | 0.00 | 68 | 1009.8 |
| 20260903214046 | 65 | 323 | 0.0 | 3.0 | 0.00 | 0.10 | 0.00 | 68 | 1009.9 |
| 20260903213546 | 65 | 0 | 0.0 | 3.0 | 0.00 | 0.10 | 0.00 | 68 | 1009.9 |
| 20260903213105 | 63 | 323 | 0.0 | 4.0 | 0.00 | 0.10 | 0.00 | 70 | 1009.9 |
| 20260903212548 | 62 | 0 | 1.0 | 4.0 | 0.00 | 0.10 | 0.00 | 71 | 1009.9 |
| 20260903212047 | 62 | 323 | 0.0 | 3.0 | 0.00 | 0.10 | 0.00 | 71 | 1009.9 |
| 20260903211603 | 63 | 322 | 0.0 | 3.0 | 0.00 | 0.10 | 0.00 | 70 | 1010.0 |
| 20260903211047 | 63 | 0 | 0.0 | 3.0 | 0.00 | 0.10 | 0.00 | 69 | 1010.0 |
| 20260903210545 | 62 | 248 | 0.0 | 3.0 | 0.00 | 0.10 | 0.00 | 69 | 1010.0 |